Weather History for Bainbridge, GA

Change the Weather History Date:

Monday, April 8, 2013

  Actual Average (KMAI) Record (KMAI)
Temperature  
Mean Temperature 70 °F 65 °F  
Max Temperature 82 °F 78 °F 91 °F (2011)
Min Temperature 57 °F 52 °F 34 °F (2007)
Degree Days  
Heating Degree Days 0    
Month to date heating degree days  
Since 1 July heating degree days  
Cooling Degree Days 4    
Month to date cooling degree days  
Year to date cooling degree days  
Growing Degree Days 20 (Base 50)    
Moisture  
Dew Point 58 °F    
Average Humidity 71    
Maximum Humidity 94    
Minimum Humidity 45    
Precipitation  
Precipitation 0.00 in 0.16 in 2.33 in (2003)
Month to date precipitation 1.33  
Year to date precipitation 16.85  
Sea Level Pressure  
Sea Level Pressure 30.10 in    
Wind  
Wind Speed 4 mph (SSE)    
Max Wind Speed 15 mph    
Max Gust Speed 25 mph    
Visibility 10 miles    
Events      
T = Trace of Precipitation, MM = Missing Value Source: NWS Daily Summary

Daily Weather History Graph

Daily Weather History Graph

Search for Another Location

Airport:

Trip Planner

Search our weather history database for the weather conditions in past years. The results will help you decide how hot, cold, wet, or windy it might be!

Date:

Astronomy

Apr. 08, 2013 Rise Set
Actual Time 7:18 AM EDT 8:02 PM EDT
Civil Twilight 6:54 AM EDT 8:26 PM EDT
Nautical Twilight 6:25 AM EDT 8:55 PM EDT
Astronomical Twilight 5:55 AM EDT 9:25 PM EDT
Moon 6:02 AM EDT (4/8) 6:39 PM EDT (4/8)
Length of Visible Light 13h 32m
Length of Day
12h 43m
Waning Crescent, 3% of the Moon is Illuminated
Apr 8
Waning Crescent
Apr 10
New
Apr 18
First Quarter
Apr 25
Full
May 2
Last Quarter

Hourly Weather History & Observations

Time (EDT) Temp. Heat Index Dew Point Humidity Pressure Visibility Wind Dir Wind Speed Gust Speed Precip Events Conditions
12:15 AM 59.0 °F - 55.4 °F 88% 30.10 in 10.0 mi Calm Calm - N/A   Clear
12:35 AM 59.0 °F - 55.4 °F 88% 30.09 in 10.0 mi Calm Calm - N/A   Clear
12:55 AM 59.0 °F - 55.4 °F 88% 30.09 in 10.0 mi Calm Calm - N/A   Clear
1:15 AM 59.0 °F - 55.4 °F 88% 30.09 in 10.0 mi Calm Calm - N/A   Clear
1:35 AM 59.0 °F - 55.4 °F 88% 30.08 in 10.0 mi Calm Calm - N/A   Clear
1:55 AM 59.0 °F - 55.4 °F 88% 30.08 in 10.0 mi Calm Calm - N/A   Clear
2:15 AM 57.2 °F - 55.4 °F 94% 30.07 in 10.0 mi Calm Calm - N/A   Clear
2:35 AM 57.2 °F - 53.6 °F 88% 30.07 in 10.0 mi Calm Calm - N/A   Clear
2:55 AM 57.2 °F - 55.4 °F 94% 30.07 in 10.0 mi Calm Calm - N/A   Clear
3:15 AM 57.2 °F - 55.4 °F 94% 30.07 in 10.0 mi Calm Calm - N/A   Clear
3:35 AM 57.2 °F - 55.4 °F 94% 30.08 in 10.0 mi East 3.5 mph - N/A   Clear
3:55 AM 57.2 °F - 55.4 °F 94% 30.08 in 10.0 mi Calm Calm - N/A   Scattered Clouds
4:15 AM 57.2 °F - 55.4 °F 94% 30.07 in 10.0 mi East 3.5 mph - N/A   Scattered Clouds
4:35 AM 57.2 °F - 55.4 °F 94% 30.07 in 10.0 mi East 3.5 mph - N/A   Scattered Clouds
4:55 AM 57.2 °F - 55.4 °F 94% 30.07 in 10.0 mi East 3.5 mph - N/A   Scattered Clouds
5:15 AM 57.2 °F - 55.4 °F 94% 30.07 in 10.0 mi East 3.5 mph - N/A   Scattered Clouds
5:35 AM 57.2 °F - 55.4 °F 94% 30.07 in 10.0 mi Calm Calm - N/A   Scattered Clouds
5:55 AM 57.2 °F - 53.6 °F 88% 30.07 in 10.0 mi Calm Calm - N/A   Clear
6:15 AM 59.0 °F - 55.4 °F 88% 30.08 in 10.0 mi Calm Calm - N/A   Clear
6:35 AM 57.2 °F - 53.6 °F 88% 30.08 in 10.0 mi Calm Calm - N/A   Clear
6:55 AM 57.2 °F - 53.6 °F 88% 30.09 in 10.0 mi Calm Calm - N/A   Clear
7:15 AM 57.2 °F - 53.6 °F 88% 30.10 in 10.0 mi Calm Calm - N/A   Scattered Clouds
7:35 AM 57.2 °F - 53.6 °F 88% 30.11 in 10.0 mi Calm Calm - N/A   Scattered Clouds
7:55 AM 57.2 °F - 55.4 °F 94% 30.11 in 10.0 mi Calm Calm - N/A   Clear
8:15 AM 59.0 °F - 57.2 °F 94% 30.11 in 10.0 mi East 3.5 mph - N/A   Clear
8:35 AM 62.6 °F - 59.0 °F 88% 30.12 in 10.0 mi SE 4.6 mph - N/A   Clear
8:55 AM 64.4 °F - 59.0 °F 83% 30.12 in 10.0 mi SE 6.9 mph - N/A   Clear
9:15 AM 68.0 °F - 60.8 °F 78% 30.12 in 10.0 mi SSE 10.4 mph - N/A   Clear
9:35 AM 69.8 °F - 60.8 °F 73% 30.13 in 10.0 mi SSE 12.7 mph 17.3 mph N/A   Clear
9:55 AM 71.6 °F - 62.6 °F 73% 30.13 in 10.0 mi SSE 12.7 mph 17.3 mph N/A   Clear
10:15 AM 71.6 °F - 60.8 °F 69% 30.13 in 10.0 mi South 12.7 mph 17.3 mph N/A   Clear
10:35 AM 71.6 °F - 60.8 °F 69% 30.14 in 10.0 mi South 10.4 mph - N/A   Clear
10:55 AM 73.4 °F - 62.6 °F 69% 30.14 in 10.0 mi South 15.0 mph 25.3 mph N/A   Clear
11:15 AM 77.0 °F - 62.6 °F 61% 30.15 in 10.0 mi SSE 13.8 mph - N/A   Clear
11:35 AM 77.0 °F - 62.6 °F 61% 30.15 in 10.0 mi SE 10.4 mph - N/A   Clear
11:55 AM 77.0 °F - 60.8 °F 57% 30.15 in 10.0 mi South 11.5 mph - N/A   Clear
12:15 PM 78.8 °F - 60.8 °F 54% 30.15 in 10.0 mi SSE 10.4 mph 18.4 mph N/A   Scattered Clouds
12:35 PM 80.6 °F 81.5 °F 60.8 °F 51% 30.15 in 10.0 mi SSE 11.5 mph - N/A   Scattered Clouds
12:55 PM 80.6 °F 81.5 °F 60.8 °F 51% 30.15 in 10.0 mi South 15.0 mph - N/A   Scattered Clouds
1:15 PM 80.6 °F 81.5 °F 60.8 °F 51% 30.14 in 10.0 mi South 9.2 mph - N/A   Scattered Clouds
1:35 PM 80.6 °F 81.1 °F 59.0 °F 48% 30.13 in 10.0 mi SSW 9.2 mph 19.6 mph N/A   Scattered Clouds
1:55 PM 82.4 °F 82.5 °F 59.0 °F 45% 30.12 in 10.0 mi SSW 10.4 mph 17.3 mph N/A   Scattered Clouds
2:15 PM 82.4 °F 82.9 °F 60.8 °F 48% 30.11 in 10.0 mi SSW 10.4 mph - N/A   Clear
2:35 PM 80.6 °F 81.1 °F 59.0 °F 48% 30.10 in 10.0 mi South 11.5 mph 17.3 mph N/A   Clear
2:55 PM 80.6 °F 81.1 °F 59.0 °F 48% 30.10 in 10.0 mi SSE 12.7 mph - N/A   Clear
3:15 PM 82.4 °F 82.5 °F 59.0 °F 45% 30.09 in 10.0 mi South 6.9 mph 17.3 mph N/A   Clear
3:35 PM 82.4 °F 82.5 °F 59.0 °F 45% 30.09 in 10.0 mi SE 10.4 mph 17.3 mph N/A   Scattered Clouds
3:55 PM 82.4 °F 82.9 °F 60.8 °F 48% 30.08 in 10.0 mi SSE 8.1 mph 21.9 mph N/A   Scattered Clouds
4:15 PM 82.4 °F 82.9 °F 60.8 °F 48% 30.08 in 10.0 mi South 11.5 mph - N/A   Scattered Clouds
4:35 PM 82.4 °F 82.5 °F 59.0 °F 45% 30.07 in 10.0 mi SW 6.9 mph - N/A   Scattered Clouds
4:55 PM 80.6 °F 81.1 °F 59.0 °F 48% 30.07 in 10.0 mi South 10.4 mph - N/A   Scattered Clouds
5:15 PM 80.6 °F 81.1 °F 59.0 °F 48% 30.07 in 10.0 mi SSE 10.4 mph - N/A   Scattered Clouds
5:35 PM 82.4 °F 82.9 °F 60.8 °F 48% 30.07 in 10.0 mi SSE 10.4 mph - N/A   Scattered Clouds
5:55 PM 80.6 °F 81.5 °F 60.8 °F 51% 30.07 in 7.0 mi SSE 10.4 mph - N/A   Scattered Clouds
6:15 PM 80.6 °F 81.5 °F 60.8 °F 51% 30.07 in 7.0 mi SSE 5.8 mph - N/A   Scattered Clouds
6:35 PM 80.6 °F 81.5 °F 60.8 °F 51% 30.08 in 10.0 mi South 10.4 mph - N/A   Clear
6:55 PM 78.8 °F - 60.8 °F 54% 30.08 in 10.0 mi South 12.7 mph - N/A   Clear
7:15 PM 77.0 °F - 60.8 °F 57% 30.08 in 7.0 mi South 10.4 mph - N/A   Clear
7:35 PM 77.0 °F - 60.8 °F 57% 30.08 in 10.0 mi SSE 9.2 mph 16.1 mph N/A   Clear
7:55 PM 77.0 °F - 60.8 °F 57% 30.08 in 10.0 mi SSE 8.1 mph - N/A   Clear
8:15 PM 73.4 °F - 60.8 °F 65% 30.09 in 7.0 mi SSE 6.9 mph - N/A   Clear
8:35 PM 71.6 °F - 59.0 °F 64% 30.09 in 7.0 mi South 6.9 mph - N/A   Clear
8:55 PM 71.6 °F - 59.0 °F 64% 30.09 in 10.0 mi SSW 6.9 mph - N/A   Clear
9:15 PM 71.6 °F - 60.8 °F 69% 30.10 in 10.0 mi South 3.5 mph - N/A   Clear
9:35 PM 71.6 °F - 60.8 °F 69% 30.10 in 10.0 mi SSW 5.8 mph - N/A   Clear
9:55 PM 69.8 °F - 59.0 °F 68% 30.11 in 10.0 mi SSW 4.6 mph - N/A   Clear
10:15 PM 69.8 °F - 60.8 °F 73% 30.11 in 10.0 mi SSW 4.6 mph - N/A   Clear
10:35 PM 68.0 °F - 59.0 °F 73% 30.11 in 10.0 mi South 4.6 mph - N/A   Clear
10:55 PM 68.0 °F - 59.0 °F 73% 30.11 in 10.0 mi SSW 4.6 mph - N/A   Clear
11:15 PM 64.4 °F - 59.0 °F 83% 30.12 in 10.0 mi SSW 3.5 mph - N/A   Clear
11:35 PM 62.6 °F - 59.0 °F 88% 30.12 in 10.0 mi Calm Calm - N/A   Clear
11:55 PM 64.4 °F - 59.0 °F 83% 30.11 in 7.0 mi Calm Calm - N/A   Clear